Regional Weather Roundup
Issued by NWS

Home | Current Version | Previous Version | Graphics & Text | Print | Product List | Glossary On
Versions: 1 2 3 4 5 6 7 8 9 10 11 12 13 14 15 16 17 18 19 20 21 22 23 24 25 26 27 28 29 30 31 32 33 34 35 36 37 38 39 40 41 42 43 44 45 46 47 48 49 50
000
ASUS43 KFSD 020210
RWRSD

WEATHER ROUNDUP FOR SOUTH DAKOTA
NATIONAL WEATHER SERVICE SIOUX FALLS SD
800 PM CST SUN MAR 01 2015

NOTE: "FAIR" INDICATES FEW OR NO CLOUDS BELOW 12,000 FEET WITH NO
SIGNIFICANT WEATHER AND/OR OBSTRUCTIONS TO VISIBILITY.


SDZ001>005-009-010-012>017-020300-
NORTHWEST AND NORTH CENTRAL SOUTH DAKOTA

CITY           SKY/WX    TMP DP  RH WIND       PRES   REMARKS
BUFFALO          N/A     19   9  65 NW3       30.20S
FAITH            N/A     19   8  62 NW5       30.33R WCI  12
MOBRIDGE       CLEAR     16  10  77 NE8       30.34R WCI   5
$$

SDZ012>016-024>037-041>051-057-063-072>074-020300-
SOUTHWEST AND SOUTH CENTRAL SOUTH DAKOTA

CITY           SKY/WX    TMP DP  RH WIND       PRES   REMARKS
RAPID CTY ARPT CLEAR     13   6  74 N3        30.31R
PIERRE         CLEAR     20  11  68 N10       30.37R WCI   9
CUSTER         CLEAR     13   5  70 S3        30.17R
ELLSWORTH AFB  CLEAR     21   8  58 CALM      30.29R
PHILIP         CLEAR     19   6  57 W3        30.36R
PINE RIDGE     CLEAR     17   7  64 E5        30.30R WCI  10
WINNER         FAIR      24   3  40 W5        30.38R WCI  18
$$

SDZ004>011-016>023-039-040-020300-
NORTHEAST SOUTH DAKOTA

CITY           SKY/WX    TMP DP  RH WIND       PRES   REMARKS
ABERDEEN       CLEAR     16   8  71 NW5       30.40R WCI   9
WATERTOWN      CLEAR     18  11  74 NW9       30.35R WCI   7
$$

SDZ017-020-022-023-036>040-048>070-020300-
SOUTHEAST SOUTH DAKOTA

CITY           SKY/WX    TMP DP  RH WIND       PRES   REMARKS
SIOUX FALLS    CLEAR     20  13  74 NW8       30.38R WCI  10
HURON          PTCLDY    16  12  84 NW3       30.39S
CHAMBERLAIN    CLEAR     21  11  63 CALM      30.38R
MITCHELL       CLEAR     21  12  68 N6        30.41R WCI  13
YANKTON        CLEAR     25  10  54 N7        30.42R WCI  17
$$

ABBREVIATIONS USED IN REMARKS
   TC - TEMPERATURE IN CELSIUS
  WCI - WIND CHILL INDEX
   HX - HEAT INDEX
  VSB - VISIBILITY



USA.gov is the U.S. government's official web portal to all federal, state and local government web resources and services.